Time,TemperatureF,DewpointF,PressureIn,WindDirection,WindDirectionDegrees,WindSpeedMPH,WindSpeedGustMPH,Humidity,HourlyPrecipIn,Conditions,Clouds,dailyrainin,SoftwareType,DateUTC
2013-06-01 00:00:00,68.4,62.3,29.75,ESE,117,3.0,3.0,81,0.00,,,0.01,Wunderground v.1.15,2013-06-01 04:00:00,
2013-06-01 00:05:00,68.3,62.6,29.75,SE,136,3.0,3.0,82,0.00,,,0.00,Wunderground v.1.15,2013-06-01 04:05:00,
2013-06-01 00:10:00,68.0,62.3,29.75,SE,136,2.0,2.0,82,0.00,,,0.00,Wunderground v.1.15,2013-06-01 04:10:00,
2013-06-01 00:15:00,67.7,62.0,29.75,SE,136,2.0,3.0,82,0.00,,,0.00,Wunderground v.1.15,2013-06-01 04:15:00,
2013-06-01 00:20:00,67.5,62.2,29.75,SE,137,2.0,2.0,83,0.00,,,0.00,Wunderground v.1.15,2013-06-01 04:20:00,
2013-06-01 00:30:00,67.7,62.3,29.75,SE,137,2.0,2.0,83,0.00,,,0.00,Wunderground v.1.15,2013-06-01 04:30:00,
2013-06-01 00:35:00,68.2,62.1,29.75,South,179,2.0,2.0,81,0.00,,,0.00,Wunderground v.1.15,2013-06-01 04:35:00,
2013-06-01 00:40:00,68.3,62.2,29.75,SSW,207,2.0,3.0,81,0.00,,,0.00,Wunderground v.1.15,2013-06-01 04:40:00,
2013-06-01 00:45:00,69.4,63.0,29.75,SSW,213,3.0,3.0,80,0.00,,,0.00,Wunderground v.1.15,2013-06-01 04:45:00,
2013-06-01 00:50:00,69.9,62.7,29.75,SSW,211,3.0,3.0,78,0.00,,,0.00,Wunderground v.1.15,2013-06-01 04:50:00,
2013-06-01 01:00:00,69.2,62.0,29.75,South,181,2.0,2.0,78,0.00,,,0.00,Wunderground v.1.15,2013-06-01 05:00:00,
2013-06-01 01:10:00,67.9,61.9,29.75,South,181,2.0,2.0,81,0.00,,,0.00,Wunderground v.1.15,2013-06-01 05:10:00,
2013-06-01 01:15:00,67.8,61.8,29.76,South,181,1.0,2.0,81,0.00,,,0.00,Wunderground v.1.15,2013-06-01 05:15:00,
2013-06-01 01:20:00,67.9,61.9,29.76,WSW,258,1.0,4.0,81,0.00,,,0.00,Wunderground v.1.15,2013-06-01 05:20:00,
2013-06-01 01:25:00,69.6,62.8,29.76,WNW,293,3.0,4.0,79,0.00,,,0.00,Wunderground v.1.15,2013-06-01 05:25:00,
2013-06-01 01:35:00,71.9,63.2,29.76,WNW,282,4.0,4.0,74,0.00,,,0.00,Wunderground v.1.15,2013-06-01 05:35:00,
2013-06-01 01:40:00,72.0,63.3,29.76,WNW,285,4.0,4.0,74,0.00,,,0.00,Wunderground v.1.15,2013-06-01 05:40:00,
2013-06-01 01:45:00,71.7,63.4,29.76,WNW,285,2.0,4.0,75,0.00,,,0.00,Wunderground v.1.15,2013-06-01 05:45:00,
2013-06-01 01:50:00,71.4,63.1,29.76,WNW,285,1.0,3.0,75,0.00,,,0.00,Wunderground v.1.15,2013-06-01 05:50:00,
2013-06-01 01:55:00,71.5,63.2,29.76,WNW,285,2.0,3.0,75,0.00,,,0.00,Wunderground v.1.15,2013-06-01 05:55:00,
2013-06-01 02:05:00,70.7,62.8,29.76,WNW,285,0.0,2.0,76,0.00,,,0.00,Wunderground v.1.15,2013-06-01 06:05:00,
2013-06-01 02:10:00,70.4,62.8,29.76,WNW,285,0.0,0.0,77,0.00,,,0.00,Wunderground v.1.15,2013-06-01 06:10:00,
2013-06-01 02:15:00,70.1,62.9,29.76,WNW,285,0.0,0.0,78,0.00,,,0.00,Wunderground v.1.15,2013-06-01 06:15:00,
2013-06-01 02:20:00,70.1,62.9,29.76,WNW,285,0.0,1.0,78,0.00,,,0.00,Wunderground v.1.15,2013-06-01 06:20:00,
2013-06-01 02:25:00,70.1,63.3,29.76,WNW,285,0.0,1.0,79,0.00,,,0.00,Wunderground v.1.15,2013-06-01 06:25:00,
2013-06-01 02:30:00,69.5,62.7,29.76,WNW,285,0.0,0.0,79,0.00,,,0.00,Wunderground v.1.15,2013-06-01 06:30:00,
2013-06-01 02:35:00,69.1,61.9,29.75,WNW,285,0.0,0.0,78,0.00,,,0.00,Wunderground v.1.15,2013-06-01 06:35:00,
2013-06-01 02:40:00,68.0,60.5,29.75,WNW,285,0.0,0.0,77,0.00,,,0.00,Wunderground v.1.15,2013-06-01 06:40:00,
2013-06-01 02:45:00,66.7,60.3,29.75,WNW,285,0.0,0.0,80,0.00,,,0.00,Wunderground v.1.15,2013-06-01 06:45:00,
2013-06-01 02:50:00,65.9,60.6,29.75,WNW,285,0.0,0.0,83,0.00,,,0.00,Wunderground v.1.15,2013-06-01 06:50:00,
2013-06-01 02:55:00,65.4,60.8,29.75,WNW,285,0.0,0.0,85,0.00,,,0.00,Wunderground v.1.15,2013-06-01 06:55:00,
2013-06-01 03:00:00,65.0,61.0,29.75,WNW,285,0.0,0.0,87,0.00,,,0.00,Wunderground v.1.15,2013-06-01 07:00:00,
2013-06-01 03:05:00,64.8,61.2,29.75,WNW,285,0.0,0.0,88,0.00,,,0.00,Wunderground v.1.15,2013-06-01 07:05:00,
2013-06-01 03:10:00,64.7,61.1,29.75,WNW,285,0.0,0.0,88,0.00,,,0.00,Wunderground v.1.15,2013-06-01 07:10:00,
2013-06-01 03:15:00,64.4,61.1,29.75,WNW,285,0.0,1.0,89,0.00,,,0.00,Wunderground v.1.15,2013-06-01 07:15:00,
2013-06-01 03:20:00,64.4,61.1,29.75,WNW,285,1.0,1.0,89,0.00,,,0.00,Wunderground v.1.15,2013-06-01 07:20:00,
2013-06-01 03:25:00,64.5,61.2,29.75,WNW,285,0.0,1.0,89,0.00,,,0.00,Wunderground v.1.15,2013-06-01 07:25:00,
2013-06-01 03:30:00,64.6,61.3,29.75,WNW,285,0.0,1.0,89,0.00,,,0.00,Wunderground v.1.15,2013-06-01 07:30:00,
2013-06-01 03:35:00,64.8,61.5,29.75,WNW,285,0.0,1.0,89,0.00,,,0.00,Wunderground v.1.15,2013-06-01 07:35:00,
2013-06-01 03:45:00,64.5,61.2,29.76,WNW,285,0.0,0.0,89,0.00,,,0.00,Wunderground v.1.15,2013-06-01 07:45:00,
2013-06-01 03:50:00,64.4,61.1,29.75,WNW,285,0.0,3.0,89,0.00,,,0.00,Wunderground v.1.15,2013-06-01 07:50:00,
2013-06-01 03:55:00,63.8,60.8,29.75,WNW,285,1.0,3.0,90,0.00,,,0.00,Wunderground v.1.15,2013-06-01 07:55:00,
2013-06-01 04:00:00,63.7,60.4,29.75,WNW,285,1.0,1.0,89,0.00,,,0.00,Wunderground v.1.15,2013-06-01 08:00:00,
2013-06-01 04:10:00,62.9,60.2,29.75,WNW,285,0.0,2.0,91,0.00,,,0.00,Wunderground v.1.15,2013-06-01 08:10:00,
2013-06-01 04:15:00,62.1,59.4,29.75,WNW,285,1.0,2.0,91,0.00,,,0.00,Wunderground v.1.15,2013-06-01 08:15:00,
2013-06-01 04:20:00,62.4,60.3,29.75,WNW,285,1.0,1.0,93,0.00,,,0.00,Wunderground v.1.15,2013-06-01 08:20:00,
2013-06-01 04:25:00,62.7,60.6,29.75,WNW,285,1.0,1.0,93,0.00,,,0.00,Wunderground v.1.15,2013-06-01 08:25:00,
2013-06-01 04:30:00,62.3,59.6,29.75,WNW,285,1.0,2.0,91,0.00,,,0.00,Wunderground v.1.15,2013-06-01 08:30:00,
2013-06-01 04:35:00,62.1,59.7,29.75,WNW,285,1.0,2.0,92,0.00,,,0.00,Wunderground v.1.15,2013-06-01 08:35:00,
2013-06-01 04:45:00,61.3,59.3,29.75,WNW,285,0.0,1.0,93,0.00,,,0.00,Wunderground v.1.15,2013-06-01 08:45:00,
2013-06-01 04:50:00,61.0,59.0,29.75,WNW,285,0.0,0.0,93,0.00,,,0.00,Wunderground v.1.15,2013-06-01 08:50:00,
2013-06-01 04:55:00,60.8,59.1,29.75,WNW,285,0.0,1.0,94,0.00,,,0.00,Wunderground v.1.15,2013-06-01 08:55:00,
2013-06-01 05:00:00,60.8,59.1,29.75,WNW,285,0.0,0.0,94,0.00,,,0.00,Wunderground v.1.15,2013-06-01 09:00:00,
2013-06-01 05:05:00,60.9,59.5,29.75,WNW,285,0.0,1.0,95,0.00,,,0.00,Wunderground v.1.15,2013-06-01 09:05:00,
2013-06-01 05:10:00,60.8,59.4,29.74,WNW,285,0.0,2.0,95,0.00,,,0.00,Wunderground v.1.15,2013-06-01 09:10:00,
2013-06-01 05:20:00,60.7,59.3,29.74,WNW,285,1.0,3.0,95,0.00,,,0.00,Wunderground v.1.15,2013-06-01 09:20:00,
2013-06-01 05:25:00,60.5,59.1,29.74,WNW,285,2.0,3.0,95,0.00,,,0.00,Wunderground v.1.15,2013-06-01 09:25:00,
2013-06-01 05:30:00,60.3,58.9,29.74,WNW,285,2.0,2.0,95,0.00,,,0.00,Wunderground v.1.15,2013-06-01 09:30:00,
2013-06-01 05:35:00,60.2,58.8,29.75,WNW,285,1.0,2.0,95,0.00,,,0.00,Wunderground v.1.15,2013-06-01 09:35:00,
2013-06-01 05:40:00,60.0,58.9,29.75,WNW,285,1.0,1.0,96,0.00,,,0.00,Wunderground v.1.15,2013-06-01 09:40:00,
2013-06-01 05:50:00,59.8,58.7,29.75,WNW,285,2.0,2.0,96,0.00,,,0.00,Wunderground v.1.15,2013-06-01 09:50:00,
2013-06-01 05:55:00,59.8,58.7,29.75,WNW,285,2.0,2.0,96,0.00,,,0.00,Wunderground v.1.15,2013-06-01 09:55:00,
2013-06-01 06:00:00,59.8,58.7,29.75,WNW,285,2.0,3.0,96,0.00,,,0.00,Wunderground v.1.15,2013-06-01 10:00:00,
2013-06-01 06:05:00,59.9,59.0,29.75,WNW,285,3.0,3.0,97,0.00,,,0.00,Wunderground v.1.15,2013-06-01 10:05:00,
2013-06-01 06:10:00,59.9,58.8,29.75,WNW,285,2.0,2.0,96,0.00,,,0.00,Wunderground v.1.15,2013-06-01 10:10:00,
2013-06-01 06:15:00,59.8,58.7,29.75,WNW,285,0.0,2.0,96,0.00,,,0.00,Wunderground v.1.15,2013-06-01 10:15:00,
2013-06-01 06:20:00,59.9,59.0,29.75,WNW,285,0.0,0.0,97,0.00,,,0.00,Wunderground v.1.15,2013-06-01 10:20:00,
2013-06-01 06:25:00,60.1,59.2,29.75,WNW,285,0.0,0.0,97,0.00,,,0.00,Wunderground v.1.15,2013-06-01 10:25:00,
2013-06-01 06:30:00,60.3,59.4,29.75,WNW,285,1.0,1.0,97,0.00,,,0.00,Wunderground v.1.15,2013-06-01 10:30:00,
2013-06-01 06:40:00,60.7,59.8,29.76,WNW,285,0.0,0.0,97,0.00,,,0.00,Wunderground v.1.15,2013-06-01 10:40:00,
2013-06-01 06:45:00,61.1,60.5,29.76,WNW,285,1.0,1.0,98,0.00,,,0.00,Wunderground v.1.15,2013-06-01 10:45:00,
2013-06-01 06:50:00,61.4,60.8,29.76,WNW,285,1.0,2.0,98,0.00,,,0.00,Wunderground v.1.15,2013-06-01 10:50:00,
2013-06-01 06:55:00,61.6,60.7,29.76,WNW,285,2.0,2.0,97,0.00,,,0.00,Wunderground v.1.15,2013-06-01 10:55:00,
2013-06-01 07:00:00,61.6,60.7,29.76,WNW,285,2.0,3.0,97,0.00,,,0.00,Wunderground v.1.15,2013-06-01 11:00:00,
2013-06-01 07:05:00,61.7,60.8,29.76,WNW,285,2.0,3.0,97,0.00,,,0.00,Wunderground v.1.15,2013-06-01 11:05:00,
2013-06-01 07:10:00,61.9,61.0,29.76,WNW,285,1.0,1.0,97,0.00,,,0.00,Wunderground v.1.15,2013-06-01 11:10:00,
2013-06-01 07:15:00,62.3,61.7,29.75,WNW,285,1.0,2.0,98,0.00,,,0.00,Wunderground v.1.15,2013-06-01 11:15:00,
2013-06-01 07:25:00,63.4,62.8,29.76,WNW,285,2.0,3.0,98,0.00,,,0.00,Wunderground v.1.15,2013-06-01 11:25:00,
2013-06-01 07:30:00,64.0,63.4,29.75,SE,126,3.0,4.0,98,0.00,,,0.00,Wunderground v.1.15,2013-06-01 11:30:00,
2013-06-01 07:35:00,64.8,63.9,29.76,SE,133,4.0,4.0,97,0.00,,,0.00,Wunderground v.1.15,2013-06-01 11:35:00,
2013-06-01 07:40:00,65.6,64.4,29.76,SE,136,4.0,5.0,96,0.00,,,0.00,Wunderground v.1.15,2013-06-01 11:40:00,
2013-06-01 07:45:00,66.2,64.4,29.76,SE,141,4.0,5.0,94,0.00,,,0.00,Wunderground v.1.15,2013-06-01 11:45:00,
2013-06-01 07:50:00,66.9,64.5,29.76,SE,124,4.0,6.0,92,0.00,,,0.00,Wunderground v.1.15,2013-06-01 11:50:00,
2013-06-01 08:00:00,68.3,64.9,29.76,SE,124,5.0,5.0,89,0.00,,,0.00,Wunderground v.1.15,2013-06-01 12:00:00,
2013-06-01 08:05:00,68.9,64.9,29.76,SE,144,5.0,7.0,87,0.00,,,0.00,Wunderground v.1.15,2013-06-01 12:05:00,
2013-06-01 08:10:00,69.4,64.7,29.76,SE,145,6.0,6.0,85,0.00,,,0.00,Wunderground v.1.15,2013-06-01 12:10:00,
2013-06-01 08:15:00,69.9,64.8,29.76,SE,131,6.0,6.0,84,0.00,,,0.00,Wunderground v.1.15,2013-06-01 12:15:00,
2013-06-01 08:20:00,70.3,65.2,29.76,SE,135,6.0,7.0,84,0.00,,,0.00,Wunderground v.1.15,2013-06-01 12:20:00,
2013-06-01 08:30:00,71.0,65.6,29.75,ESE,123,7.0,8.0,83,0.00,,,0.00,Wunderground v.1.15,2013-06-01 12:30:00,
2013-06-01 08:35:00,71.5,66.4,29.76,SE,128,7.0,8.0,84,0.00,,,0.00,Wunderground v.1.15,2013-06-01 12:35:00,
2013-06-01 08:40:00,71.9,66.1,29.76,SE,135,7.0,7.0,82,0.00,,,0.00,Wunderground v.1.15,2013-06-01 12:40:00,
2013-06-01 08:45:00,72.3,66.5,29.76,SE,144,6.0,7.0,82,0.00,,,0.00,Wunderground v.1.15,2013-06-01 12:45:00,
2013-06-01 08:50:00,72.9,66.7,29.76,ESE,117,6.0,7.0,81,0.00,,,0.00,Wunderground v.1.15,2013-06-01 12:50:00,
2013-06-01 08:55:00,73.4,67.2,29.75,ESE,119,6.0,7.0,81,0.00,,,0.00,Wunderground v.1.15,2013-06-01 12:55:00,
2013-06-01 09:05:00,74.1,67.2,29.75,SE,140,6.0,6.0,79,0.00,,,0.00,Wunderground v.1.15,2013-06-01 13:05:00,
2013-06-01 09:10:00,74.6,68.0,29.75,SE,134,6.0,6.0,80,0.00,,,0.00,Wunderground v.1.15,2013-06-01 13:10:00,
2013-06-01 09:15:00,75.1,68.1,29.75,SE,139,5.0,6.0,79,0.00,,,0.00,Wunderground v.1.15,2013-06-01 13:15:00,
2013-06-01 09:20:00,75.8,67.7,29.75,ESE,123,4.0,4.0,76,0.00,,,0.00,Wunderground v.1.15,2013-06-01 13:20:00,
2013-06-01 09:25:00,76.5,68.4,29.75,South,178,4.0,4.0,76,0.00,,,0.00,Wunderground v.1.15,2013-06-01 13:25:00,
2013-06-01 09:30:00,77.2,67.9,29.74,SE,135,4.0,5.0,73,0.00,,,0.00,Wunderground v.1.15,2013-06-01 13:30:00,
2013-06-01 09:40:00,77.6,67.0,29.74,SW,223,5.0,5.0,70,0.00,,,0.00,Wunderground v.1.15,2013-06-01 13:40:00,
2013-06-01 09:45:00,78.0,68.2,29.74,South,184,4.0,5.0,72,0.00,,,0.00,Wunderground v.1.15,2013-06-01 13:45:00,
2013-06-01 09:50:00,78.4,68.2,29.74,SE,142,3.0,6.0,71,0.00,,,0.00,Wunderground v.1.15,2013-06-01 13:50:00,
2013-06-01 09:55:00,78.5,67.1,29.74,SW,232,4.0,6.0,68,0.00,,,0.00,Wunderground v.1.15,2013-06-01 13:55:00,
2013-06-01 10:05:00,78.8,67.8,29.73,SW,234,3.0,5.0,69,0.00,,,0.00,Wunderground v.1.15,2013-06-01 14:05:00,
2013-06-01 10:10:00,79.2,69.0,29.73,WSW,238,3.0,5.0,71,0.00,,,0.00,Wunderground v.1.15,2013-06-01 14:10:00,
2013-06-01 10:15:00,79.2,67.7,29.73,SW,236,3.0,9.0,68,0.00,,,0.00,Wunderground v.1.15,2013-06-01 14:15:00,
2013-06-01 10:20:00,79.0,68.0,29.73,SW,234,4.0,4.0,69,0.00,,,0.00,Wunderground v.1.15,2013-06-01 14:20:00,
2013-06-01 10:25:00,78.9,67.0,29.73,SSE,167,5.0,5.0,67,0.00,,,0.00,Wunderground v.1.15,2013-06-01 14:25:00,
2013-06-01 10:30:00,79.1,68.1,29.73,SSE,161,4.0,6.0,69,0.00,,,0.00,Wunderground v.1.15,2013-06-01 14:30:00,
2013-06-01 10:35:00,79.4,67.9,29.73,South,170,4.0,6.0,68,0.00,,,0.00,Wunderground v.1.15,2013-06-01 14:35:00,
2013-06-01 10:40:00,79.5,68.0,29.73,South,176,4.0,4.0,68,0.00,,,0.00,Wunderground v.1.15,2013-06-01 14:40:00,
2013-06-01 10:45:00,79.8,68.3,29.73,WSW,254,4.0,6.0,68,0.00,,,0.00,Wunderground v.1.15,2013-06-01 14:45:00,
2013-06-01 10:50:00,80.4,69.3,29.73,South,171,5.0,5.0,69,0.00,,,0.00,Wunderground v.1.15,2013-06-01 14:50:00,
2013-06-01 10:55:00,80.3,67.9,29.73,WSW,243,6.0,7.0,66,0.00,,,0.00,Wunderground v.1.15,2013-06-01 14:55:00,
2013-06-01 11:00:00,80.3,67.9,29.72,South,171,6.0,6.0,66,0.00,,,0.00,Wunderground v.1.15,2013-06-01 15:00:00,
2013-06-01 11:05:00,79.7,68.2,29.73,SSE,167,6.0,6.0,68,0.00,,,0.00,Wunderground v.1.15,2013-06-01 15:05:00,
2013-06-01 11:10:00,79.4,68.3,29.73,SSE,152,6.0,8.0,69,0.00,,,0.00,Wunderground v.1.15,2013-06-01 15:10:00,
2013-06-01 11:15:00,79.2,68.1,29.73,SSE,165,5.0,8.0,69,0.00,,,0.00,Wunderground v.1.15,2013-06-01 15:15:00,
2013-06-01 11:20:00,79.3,68.2,29.72,East,100,5.0,7.0,69,0.00,,,0.00,Wunderground v.1.15,2013-06-01 15:20:00,
2013-06-01 11:25:00,79.7,68.2,29.73,East,83,5.0,7.0,68,0.00,,,0.00,Wunderground v.1.15,2013-06-01 15:25:00,
2013-06-01 11:30:00,79.6,68.1,29.72,ESE,116,6.0,6.0,68,0.00,,,0.00,Wunderground v.1.15,2013-06-01 15:30:00,
2013-06-01 11:35:00,79.7,68.2,29.72,SSE,165,6.0,6.0,68,0.00,,,0.00,Wunderground v.1.15,2013-06-01 15:35:00,
2013-06-01 11:45:00,80.3,69.6,29.72,SSW,205,5.0,7.0,70,0.00,,,0.00,Wunderground v.1.15,2013-06-01 15:45:00,
2013-06-01 11:50:00,80.2,68.7,29.72,SW,231,5.0,5.0,68,0.00,,,0.00,Wunderground v.1.15,2013-06-01 15:50:00,
2013-06-01 11:55:00,80.2,68.7,29.72,SSE,168,5.0,6.0,68,0.00,,,0.00,Wunderground v.1.15,2013-06-01 15:55:00,
2013-06-01 12:00:00,79.5,67.1,29.72,WSW,244,5.0,6.0,66,0.00,,,0.00,Wunderground v.1.15,2013-06-01 16:00:00,
2013-06-01 12:05:00,79.6,69.0,29.72,South,169,6.0,6.0,70,0.00,,,0.00,Wunderground v.1.15,2013-06-01 16:05:00,
2013-06-01 12:15:00,79.4,68.3,29.72,SW,236,5.0,6.0,69,0.00,,,0.00,Wunderground v.1.15,2013-06-01 16:15:00,
2013-06-01 12:20:00,80.0,68.9,29.72,SW,215,5.0,5.0,69,0.00,,,0.00,Wunderground v.1.15,2013-06-01 16:20:00,
2013-06-01 12:25:00,80.3,69.6,29.72,WSW,241,5.0,5.0,70,0.00,,,0.00,Wunderground v.1.15,2013-06-01 16:25:00,
2013-06-01 12:30:00,80.8,69.7,29.71,SSE,153,5.0,6.0,69,0.00,,,0.00,Wunderground v.1.15,2013-06-01 16:30:00,
2013-06-01 12:40:00,81.0,69.0,29.71,WSW,240,6.0,9.0,67,0.00,,,0.00,Wunderground v.1.15,2013-06-01 16:40:00,
2013-06-01 12:45:00,80.7,69.2,29.71,SSE,160,5.0,9.0,68,0.00,,,0.00,Wunderground v.1.15,2013-06-01 16:45:00,
2013-06-01 12:50:00,80.4,68.9,29.70,SE,139,5.0,8.0,68,0.00,,,0.00,Wunderground v.1.15,2013-06-01 16:50:00,
2013-06-01 12:55:00,80.6,71.1,29.70,WSW,237,5.0,8.0,73,0.00,,,0.00,Wunderground v.1.15,2013-06-01 16:55:00,
2013-06-01 13:00:00,81.2,69.2,29.69,South,170,5.0,5.0,67,0.00,,,0.00,Wunderground v.1.15,2013-06-01 17:00:00,
2013-06-01 13:05:00,81.6,70.9,29.69,SSE,163,4.0,6.0,70,0.00,,,0.00,Wunderground v.1.15,2013-06-01 17:05:00,
2013-06-01 13:10:00,82.1,70.5,29.69,SSE,151,5.0,6.0,68,0.00,,,0.00,Wunderground v.1.15,2013-06-01 17:10:00,
2013-06-01 13:20:00,82.4,69.9,29.70,ENE,68,7.0,7.0,66,0.00,,,0.00,Wunderground v.1.15,2013-06-01 17:20:00,
2013-06-01 13:25:00,82.6,68.3,29.69,SW,229,6.0,7.0,62,0.00,,,0.00,Wunderground v.1.15,2013-06-01 17:25:00,
2013-06-01 13:30:00,83.0,70.9,29.68,WSW,244,5.0,8.0,67,0.00,,,0.00,Wunderground v.1.15,2013-06-01 17:30:00,
2013-06-01 13:35:00,83.2,70.7,29.68,SSW,199,5.0,8.0,66,0.00,,,0.00,Wunderground v.1.15,2013-06-01 17:35:00,
2013-06-01 13:40:00,83.1,71.0,29.68,SSE,166,5.0,6.0,67,0.00,,,0.00,Wunderground v.1.15,2013-06-01 17:40:00,
2013-06-01 13:50:00,83.6,69.2,29.68,WSW,244,5.0,6.0,62,0.00,,,0.00,Wunderground v.1.15,2013-06-01 17:50:00,
2013-06-01 13:55:00,83.6,69.7,29.68,SW,218,5.0,6.0,63,0.00,,,0.00,Wunderground v.1.15,2013-06-01 17:55:00,
2013-06-01 14:00:00,83.1,70.1,29.67,SSE,147,4.0,4.0,65,0.00,,,0.00,Wunderground v.1.15,2013-06-01 18:00:00,
2013-06-01 14:05:00,83.2,69.3,29.67,SE,144,4.0,7.0,63,0.00,,,0.00,Wunderground v.1.15,2013-06-01 18:05:00,
2013-06-01 14:10:00,83.0,70.0,29.67,WSW,249,6.0,6.0,65,0.00,,,0.00,Wunderground v.1.15,2013-06-01 18:10:00,
2013-06-01 14:15:00,83.3,69.8,29.67,SSE,156,5.0,8.0,64,0.00,,,0.00,Wunderground v.1.15,2013-06-01 18:15:00,
2013-06-01 14:25:00,83.2,69.3,29.66,SSE,150,4.0,6.0,63,0.00,,,0.00,Wunderground v.1.15,2013-06-01 18:25:00,
2013-06-01 14:30:00,83.1,69.2,29.67,SSE,157,4.0,4.0,63,0.00,,,0.00,Wunderground v.1.15,2013-06-01 18:30:00,
2013-06-01 14:35:00,83.5,70.0,29.67,SSW,202,4.0,4.0,64,0.00,,,0.00,Wunderground v.1.15,2013-06-01 18:35:00,
2013-06-01 14:40:00,83.8,68.9,29.67,WSW,251,4.0,7.0,61,0.00,,,0.00,Wunderground v.1.15,2013-06-01 18:40:00,
2013-06-01 14:45:00,84.2,70.2,29.66,SSE,156,5.0,10.0,63,0.00,,,0.00,Wunderground v.1.15,2013-06-01 18:45:00,
2013-06-01 14:50:00,83.9,70.9,29.66,SE,133,6.0,7.0,65,0.00,,,0.00,Wunderground v.1.15,2013-06-01 18:50:00,
2013-06-01 14:55:00,83.3,68.9,29.66,SSE,149,6.0,7.0,62,0.00,,,0.00,Wunderground v.1.15,2013-06-01 18:55:00,
2013-06-01 15:00:00,82.8,69.4,29.66,SE,127,6.0,7.0,64,0.00,,,0.00,Wunderground v.1.15,2013-06-01 19:00:00,
2013-06-01 15:10:00,82.8,70.7,29.66,South,182,7.0,7.0,67,0.00,,,0.00,Wunderground v.1.15,2013-06-01 19:10:00,
2013-06-01 15:15:00,83.6,68.7,29.65,South,175,6.0,7.0,61,0.00,,,0.00,Wunderground v.1.15,2013-06-01 19:15:00,
2013-06-01 15:25:00,84.4,69.5,29.65,SE,144,5.0,8.0,61,0.00,,,0.00,Wunderground v.1.15,2013-06-01 19:25:00,
2013-06-01 15:30:00,83.5,68.2,29.65,SSE,157,6.0,6.0,60,0.00,,,0.00,Wunderground v.1.15,2013-06-01 19:30:00,
2013-06-01 15:35:00,82.9,69.5,29.65,SE,144,6.0,6.0,64,0.00,,,0.00,Wunderground v.1.15,2013-06-01 19:35:00,
2013-06-01 15:40:00,82.8,68.0,29.65,SSE,157,6.0,6.0,61,0.00,,,0.00,Wunderground v.1.15,2013-06-01 19:40:00,
2013-06-01 15:45:00,82.6,68.7,29.65,SSE,161,5.0,6.0,63,0.00,,,0.00,Wunderground v.1.15,2013-06-01 19:45:00,
2013-06-01 15:50:00,82.3,69.8,29.64,SE,139,4.0,5.0,66,0.00,,,0.00,Wunderground v.1.15,2013-06-01 19:50:00,
2013-06-01 16:00:00,82.9,70.4,29.64,WSW,258,4.0,4.0,66,0.00,,,0.00,Wunderground v.1.15,2013-06-01 20:00:00,
2013-06-01 16:05:00,84.1,68.7,29.64,WSW,257,4.0,10.0,60,0.00,,,0.00,Wunderground v.1.15,2013-06-01 20:05:00,
2013-06-01 16:10:00,84.7,69.8,29.64,SSW,202,5.0,5.0,61,0.00,,,0.00,Wunderground v.1.15,2013-06-01 20:10:00,
2013-06-01 16:15:00,84.8,68.4,29.64,WSW,243,5.0,6.0,58,0.00,,,0.00,Wunderground v.1.15,2013-06-01 20:15:00,
2013-06-01 16:20:00,84.8,69.4,29.64,WSW,246,6.0,6.0,60,0.00,,,0.00,Wunderground v.1.15,2013-06-01 20:20:00,
2013-06-01 16:30:00,84.3,69.4,29.63,SW,231,5.0,5.0,61,0.00,,,0.00,Wunderground v.1.15,2013-06-01 20:30:00,
2013-06-01 16:35:00,84.3,68.9,29.64,SE,136,5.0,6.0,60,0.00,,,0.00,Wunderground v.1.15,2013-06-01 20:35:00,
2013-06-01 16:40:00,83.9,69.0,29.63,South,175,5.0,5.0,61,0.00,,,0.00,Wunderground v.1.15,2013-06-01 20:40:00,
2013-06-01 16:45:00,84.4,68.0,29.63,SW,225,4.0,7.0,58,0.00,,,0.00,Wunderground v.1.15,2013-06-01 20:45:00,
2013-06-01 16:50:00,84.7,69.8,29.63,SSE,152,5.0,5.0,61,0.00,,,0.00,Wunderground v.1.15,2013-06-01 20:50:00,
2013-06-01 16:55:00,84.3,68.9,29.63,SSE,163,6.0,6.0,60,0.00,,,0.00,Wunderground v.1.15,2013-06-01 20:55:00,
2013-06-01 17:00:00,83.9,69.0,29.63,South,182,7.0,7.0,61,0.00,,,0.00,Wunderground v.1.15,2013-06-01 21:00:00,
2013-06-01 17:10:00,83.5,70.5,29.63,SE,133,6.0,8.0,65,0.00,,,0.00,Wunderground v.1.15,2013-06-01 21:10:00,
2013-06-01 17:15:00,83.6,69.7,29.63,South,180,5.0,8.0,63,0.00,,,0.00,Wunderground v.1.15,2013-06-01 21:15:00,
2013-06-01 17:20:00,83.2,68.3,29.63,SSE,151,6.0,8.0,61,0.00,,,0.00,Wunderground v.1.15,2013-06-01 21:20:00,
2013-06-01 17:25:00,82.5,67.7,29.62,South,174,7.0,8.0,61,0.00,,,0.00,Wunderground v.1.15,2013-06-01 21:25:00,
2013-06-01 17:30:00,82.3,69.4,29.62,SE,134,6.0,6.0,65,0.00,,,0.00,Wunderground v.1.15,2013-06-01 21:30:00,
2013-06-01 17:40:00,83.2,68.3,29.62,SSE,153,5.0,5.0,61,0.00,,,0.00,Wunderground v.1.15,2013-06-01 21:40:00,
2013-06-01 17:45:00,82.7,68.4,29.62,SSE,149,5.0,5.0,62,0.00,,,0.00,Wunderground v.1.15,2013-06-01 21:45:00,
2013-06-01 17:50:00,82.5,69.1,29.62,SSE,159,6.0,6.0,64,0.00,,,0.00,Wunderground v.1.15,2013-06-01 21:50:00,
2013-06-01 17:55:00,82.7,66.9,29.62,North,360,6.0,6.0,59,0.00,,,0.00,Wunderground v.1.15,2013-06-01 21:55:00,
2013-06-01 18:05:00,81.8,67.5,29.62,SW,223,4.0,5.0,62,0.00,,,0.00,Wunderground v.1.15,2013-06-01 22:05:00,
2013-06-01 18:10:00,81.5,67.7,29.61,SSE,159,3.0,3.0,63,0.00,,,0.00,Wunderground v.1.15,2013-06-01 22:10:00,
2013-06-01 18:15:00,81.5,67.2,29.61,East,99,3.0,3.0,62,0.00,,,0.00,Wunderground v.1.15,2013-06-01 22:15:00,
2013-06-01 18:20:00,82.0,66.7,29.61,SSE,155,4.0,5.0,60,0.00,,,0.00,Wunderground v.1.15,2013-06-01 22:20:00,
2013-06-01 18:25:00,82.2,67.4,29.61,SSE,153,4.0,6.0,61,0.00,,,0.00,Wunderground v.1.15,2013-06-01 22:25:00,
2013-06-01 18:30:00,82.3,67.5,29.61,SSE,153,4.0,7.0,61,0.00,,,0.00,Wunderground v.1.15,2013-06-01 22:30:00,
2013-06-01 18:35:00,81.7,66.9,29.60,SE,136,5.0,9.0,61,0.00,,,0.00,Wunderground v.1.15,2013-06-01 22:35:00,
2013-06-01 18:40:00,80.7,66.9,29.60,SE,132,6.0,6.0,63,0.00,,,0.00,Wunderground v.1.15,2013-06-01 22:40:00,
2013-06-01 18:45:00,79.9,66.6,29.60,SE,140,6.0,8.0,64,0.00,,,0.00,Wunderground v.1.15,2013-06-01 22:45:00,
2013-06-01 18:50:00,79.6,66.3,29.60,ESE,116,6.0,7.0,64,0.00,,,0.00,Wunderground v.1.15,2013-06-01 22:50:00,
2013-06-01 18:55:00,79.6,65.9,29.60,SSE,150,5.0,7.0,63,0.00,,,0.00,Wunderground v.1.15,2013-06-01 22:55:00,
2013-06-01 19:00:00,79.7,66.4,29.61,SSE,156,5.0,5.0,64,0.00,,,0.00,Wunderground v.1.15,2013-06-01 23:00:00,
2013-06-01 19:05:00,79.8,66.1,29.61,SSE,148,5.0,5.0,63,0.00,,,0.00,Wunderground v.1.15,2013-06-01 23:05:00,
2013-06-01 19:10:00,79.7,66.0,29.61,ESE,115,5.0,7.0,63,0.00,,,0.00,Wunderground v.1.15,2013-06-01 23:10:00,
2013-06-01 19:15:00,79.6,66.3,29.61,SE,140,5.0,7.0,64,0.00,,,0.00,Wunderground v.1.15,2013-06-01 23:15:00,
2013-06-01 19:20:00,79.3,66.1,29.62,SSE,163,4.0,4.0,64,0.00,,,0.00,Wunderground v.1.15,2013-06-01 23:20:00,
2013-06-01 19:25:00,79.1,66.3,29.62,SE,144,4.0,4.0,65,0.00,,,0.00,Wunderground v.1.15,2013-06-01 23:25:00,
2013-06-01 19:30:00,79.1,65.9,29.62,SSE,148,4.0,5.0,64,0.00,,,0.00,Wunderground v.1.15,2013-06-01 23:30:00,
2013-06-01 19:35:00,79.1,66.3,29.62,SSE,150,6.0,6.0,65,0.00,,,0.00,Wunderground v.1.15,2013-06-01 23:35:00,
2013-06-01 19:45:00,78.6,65.8,29.62,SSE,151,5.0,6.0,65,0.00,,,0.00,Wunderground v.1.15,2013-06-01 23:45:00,
2013-06-01 19:50:00,78.5,65.8,29.62,SE,139,5.0,5.0,65,0.00,,,0.00,Wunderground v.1.15,2013-06-01 23:50:00,
2013-06-01 19:55:00,78.4,66.1,29.62,SSE,165,5.0,5.0,66,0.00,,,0.00,Wunderground v.1.15,2013-06-01 23:55:00,
2013-06-01 20:00:00,77.9,66.1,29.62,SE,137,5.0,5.0,67,0.00,,,0.00,Wunderground v.1.15,2013-06-02 00:00:00,
2013-06-01 20:05:00,77.6,66.2,29.62,SSE,148,4.0,5.0,68,0.00,,,0.00,Wunderground v.1.15,2013-06-02 00:05:00,
2013-06-01 20:15:00,77.3,65.9,29.62,SE,142,4.0,4.0,68,0.00,,,0.00,Wunderground v.1.15,2013-06-02 00:15:00,
2013-06-01 20:20:00,77.0,65.6,29.62,SSE,157,4.0,4.0,68,0.00,,,0.00,Wunderground v.1.15,2013-06-02 00:20:00,
2013-06-01 20:25:00,76.9,66.0,29.62,SSE,162,4.0,4.0,69,0.00,,,0.00,Wunderground v.1.15,2013-06-02 00:25:00,
2013-06-01 20:30:00,76.8,65.9,29.62,ESE,121,5.0,5.0,69,0.00,,,0.00,Wunderground v.1.15,2013-06-02 00:30:00,
2013-06-01 20:40:00,76.2,65.7,29.61,SSE,148,4.0,4.0,70,0.00,,,0.00,Wunderground v.1.15,2013-06-02 00:40:00,
2013-06-01 20:45:00,75.9,65.8,29.61,SE,144,4.0,4.0,71,0.00,,,0.00,Wunderground v.1.15,2013-06-02 00:45:00,
2013-06-01 20:50:00,75.6,65.5,29.61,SE,136,4.0,5.0,71,0.00,,,0.00,Wunderground v.1.15,2013-06-02 00:50:00,
2013-06-01 20:55:00,75.6,65.5,29.61,SSE,149,5.0,5.0,71,0.00,,,0.00,Wunderground v.1.15,2013-06-02 00:55:00,
2013-06-01 21:00:00,75.7,65.6,29.61,SE,138,5.0,5.0,71,0.00,,,0.00,Wunderground v.1.15,2013-06-02 01:00:00,
2013-06-01 21:05:00,75.5,65.8,29.61,SE,142,4.0,5.0,72,0.00,,,0.00,Wunderground v.1.15,2013-06-02 01:05:00,
2013-06-01 21:10:00,75.3,65.6,29.61,SE,142,4.0,4.0,72,0.00,,,0.00,Wunderground v.1.15,2013-06-02 01:10:00,
2013-06-01 21:20:00,74.8,65.6,29.62,SE,146,4.0,4.0,73,0.00,,,0.00,Wunderground v.1.15,2013-06-02 01:20:00,
2013-06-01 21:25:00,74.8,65.6,29.62,SE,142,4.0,5.0,73,0.00,,,0.00,Wunderground v.1.15,2013-06-02 01:25:00,
2013-06-01 21:30:00,74.5,65.7,29.62,SE,124,4.0,4.0,74,0.00,,,0.00,Wunderground v.1.15,2013-06-02 01:30:00,
2013-06-01 21:35:00,73.8,65.4,29.62,SE,132,3.0,4.0,75,0.00,,,0.00,Wunderground v.1.15,2013-06-02 01:35:00,
2013-06-01 21:40:00,73.3,65.7,29.62,SE,132,3.0,3.0,77,0.00,,,0.00,Wunderground v.1.15,2013-06-02 01:40:00,
2013-06-01 21:50:00,72.9,65.3,29.62,SE,126,3.0,4.0,77,0.00,,,0.00,Wunderground v.1.15,2013-06-02 01:50:00,
2013-06-01 21:55:00,73.0,65.4,29.63,SE,126,3.0,4.0,77,0.00,,,0.00,Wunderground v.1.15,2013-06-02 01:55:00,
2013-06-01 22:00:00,72.8,65.5,29.63,SE,126,3.0,3.0,78,0.00,,,0.00,Wunderground v.1.15,2013-06-02 02:00:00,
2013-06-01 22:05:00,72.6,65.3,29.63,SE,126,2.0,3.0,78,0.00,,,0.00,Wunderground v.1.15,2013-06-02 02:05:00,
2013-06-01 22:10:00,72.6,65.3,29.63,SE,126,2.0,2.0,78,0.00,,,0.00,Wunderground v.1.15,2013-06-02 02:10:00,
2013-06-01 22:15:00,72.5,65.2,29.63,SE,126,2.0,2.0,78,0.00,,,0.00,Wunderground v.1.15,2013-06-02 02:15:00,
2013-06-01 22:25:00,72.8,65.5,29.63,SE,126,1.0,2.0,78,0.00,,,0.00,Wunderground v.1.15,2013-06-02 02:25:00,
2013-06-01 22:30:00,72.8,65.2,29.63,SE,126,0.0,0.0,77,0.00,,,0.00,Wunderground v.1.15,2013-06-02 02:30:00,
2013-06-01 22:40:00,73.1,65.5,29.63,SE,126,0.0,0.0,77,0.00,,,0.00,Wunderground v.1.15,2013-06-02 02:40:00,
2013-06-01 22:45:00,73.3,65.3,29.63,SE,126,0.0,0.0,76,0.00,,,0.00,Wunderground v.1.15,2013-06-02 02:45:00,
2013-06-01 22:50:00,73.4,65.4,29.63,SE,126,0.0,0.0,76,0.00,,,0.00,Wunderground v.1.15,2013-06-02 02:50:00,
2013-06-01 23:00:00,73.9,65.5,29.63,SE,126,0.0,0.0,75,0.00,,,0.00,Wunderground v.1.15,2013-06-02 03:00:00,
2013-06-01 23:05:00,74.1,66.0,29.63,SE,126,0.0,2.0,76,0.00,,,0.00,Wunderground v.1.15,2013-06-02 03:05:00,
2013-06-01 23:10:00,74.0,66.0,29.63,ESE,123,0.0,0.0,76,0.00,,,0.00,Wunderground v.1.15,2013-06-02 03:10:00,
2013-06-01 23:15:00,73.9,65.9,29.62,ESE,123,0.0,0.0,76,0.00,,,0.00,Wunderground v.1.15,2013-06-02 03:15:00,
2013-06-01 23:25:00,73.1,66.2,29.62,ESE,123,0.0,1.0,79,0.00,,,0.00,Wunderground v.1.15,2013-06-02 03:25:00,
2013-06-01 23:30:00,72.5,66.0,29.62,ESE,115,1.0,2.0,80,0.00,,,0.00,Wunderground v.1.15,2013-06-02 03:30:00,
2013-06-01 23:35:00,71.9,66.1,29.62,ESE,109,1.0,2.0,82,0.00,,,0.00,Wunderground v.1.15,2013-06-02 03:35:00,
2013-06-01 23:45:00,71.1,65.7,29.63,SW,220,2.0,2.0,83,0.00,,,0.00,Wunderground v.1.15,2013-06-02 03:45:00,
2013-06-01 23:50:00,70.9,65.8,29.63,NNE,26,2.0,2.0,84,0.00,,,0.00,Wunderground v.1.15,2013-06-02 03:50:00,
2013-06-01 23:55:00,70.5,65.4,29.63,East,83,1.0,2.0,84,0.00,,,0.00,Wunderground v.1.15,2013-06-02 03:55:00,